Regional Weather Roundup
Issued by NWS

Home | Current Version | Previous Version | Graphics & Text | Print | Product List | Glossary On
Versions: 1 2 3 4 5 6 7 8 9 10 11 12 13 14 15 16 17 18 19 20 21 22 23 24 25 26 27 28 29 30 31 32 33 34 35 36 37 38 39 40 41 42 43 44 45 46 47 48 49 50
000
ASUS43 KTOP 290459
RWRKS

WEATHER ROUNDUP FOR KANSAS
NATIONAL WEATHER SERVICE GOODLAND KS
1200 AM CDT SAT AUG 29 2015

NOTE:  "FAIR" INDICATES FEW OR NO CLOUDS BELOW 12,000 FEET WITH NO
SIGNIFICANT WEATHER AND/OR OBSTRUCTIONS TO VISIBILITY.

KSZ001>006-013>018-027>032-041>047-290600-
NORTHWEST KANSAS

CITY           SKY/WX    TMP DP  RH WIND       PRES   REMARKS
GOODLAND       CLEAR     64  54  69 SE6       30.16R
HAYS           CLEAR     68  55  64 NE5       30.06R
HILL CITY      CLEAR     64  60  87 CALM      30.08R
RUSSELL        CLEAR     67  63  87 NE6       30.04R
$$

KSZ061>065-074>080-084>089-290600-
SOUTHWEST KANSAS

CITY           SKY/WX    TMP DP  RH WIND       PRES   REMARKS
DODGE CITY     CLEAR     67  61  81 NE7       30.08R
ELKHART          N/A     74  57  55 W6          N/A
GARDEN CITY    CLEAR     71  58  63 NE12      30.10R
GREAT BEND     FAIR      72  61  68 NE7       30.04R
LIBERAL        PTCLDY    75  57  53 NW3       30.10R
PRATT          CLEAR     72  63  73 CALM      30.04S
$$

KSZ066>073-081>083-090>101-290600-
SOUTHEAST KANSAS

CITY           SKY/WX    TMP DP  RH WIND       PRES   REMARKS
CHANUTE        PTCLDY    70  68  93 CALM      29.96S
COFFEYVILLE    MOCLDY    71  68  90 SE6       29.95R
HUTCHINSON     CLEAR     73  66  78 NE6       30.01R
NEWTON         MOCLDY    72  63  73 N9        30.02R
PARSONS        MOCLDY    70  69  97 CALM      29.97R
WICHITA INTL   PTCLDY    75  67  76 N5        29.97R
WICHITA JABRA  MOCLDY    70  67  90 N6        29.98R
$$

KSZ007>012-019>026-033>040-048>060-102>105-290600-
NORTHEAST KANSAS

CITY           SKY/WX    TMP DP  RH WIND       PRES   REMARKS
CONCORDIA      CLEAR     66  62  87 NW6       30.00R
EMPORIA        CLOUDY    72  68  87 W7        29.96S
LAWRENCE       PTCLDY    70  67  90 NE3       29.94R
MANHATTAN      CLEAR     69  65  86 NW3       29.96F
OLATHE IND     MOCLDY    70  68  93 S9        29.94F
OLATHE EXE     MOCLDY    71  68  90 S8        29.93F
SALINA         CLEAR     70  64  81 NW7       30.00R
TOPEKA BILLARD MOCLDY    71  70  96 CALM      29.93S
TOPEKA FORBES  PTCLDY    72  68  87 SW6       29.94R
$$



USA.gov is the U.S. government's official web portal to all federal, state and local government web resources and services.